Time,TemperatureF,DewpointF,PressureIn,WindDirection,WindDirectionDegrees,WindSpeedMPH,WindSpeedGustMPH,Humidity,HourlyPrecipIn,Conditions,Clouds,dailyrainin,SolarRadiationWatts/m^2,SoftwareType,DateUTC
2013-02-23 00:02:00,37.6,37.9,29.99,SE,128,3.0,6.0,28,0.00,,,0.24,0.0,meteohub,2013-02-23 05:02:00,
2013-02-23 00:07:00,37.8,37.8,29.99,ESE,119,0.0,6.0,28,0.00,,,0.00,0.0,meteohub,2013-02-23 05:07:00,
2013-02-23 00:12:00,37.8,37.8,29.99,ESE,121,3.0,6.0,28,0.00,,,0.00,0.0,meteohub,2013-02-23 05:12:00,
2013-02-23 00:17:00,37.8,37.8,29.99,SE,128,1.0,6.0,28,0.00,,,0.00,0.0,meteohub,2013-02-23 05:17:00,
2013-02-23 00:22:00,37.9,37.8,29.99,East,98,3.0,7.0,28,0.00,,,0.00,0.0,meteohub,2013-02-23 05:22:00,
2013-02-23 00:27:00,37.9,37.8,29.98,SE,141,4.0,7.0,28,0.00,,,0.00,0.0,meteohub,2013-02-23 05:27:00,
2013-02-23 00:32:00,37.9,37.8,29.99,East,85,2.0,10.0,28,0.00,,,0.00,0.0,meteohub,2013-02-23 05:32:00,
2013-02-23 00:37:00,37.9,37.8,29.99,ESE,117,1.0,10.0,28,0.00,,,0.00,0.0,meteohub,2013-02-23 05:37:00,
2013-02-23 00:42:00,37.9,37.8,29.99,SSE,153,2.0,10.0,28,0.00,,,0.00,0.0,meteohub,2013-02-23 05:42:00,
2013-02-23 00:52:00,38.1,37.8,29.99,ESE,121,0.0,6.0,28,0.00,,,0.00,0.0,meteohub,2013-02-23 05:52:00,
2013-02-23 00:57:00,38.1,37.8,29.99,ESE,121,0.0,3.0,28,0.00,,,0.00,0.0,meteohub,2013-02-23 05:57:00,
2013-02-23 01:02:00,38.3,37.8,29.98,SE,134,3.0,4.0,28,0.00,,,0.00,0.0,meteohub,2013-02-23 06:02:00,
2013-02-23 01:07:00,38.3,37.8,29.99,SE,125,3.0,7.0,28,0.00,,,0.00,0.0,meteohub,2013-02-23 06:07:00,
2013-02-23 01:12:00,38.5,37.8,29.98,SE,144,4.0,7.0,28,0.00,,,0.00,0.0,meteohub,2013-02-23 06:12:00,
2013-02-23 01:17:00,38.5,37.8,29.98,SSE,155,0.0,6.0,28,0.00,,,0.00,0.0,meteohub,2013-02-23 06:17:00,
2013-02-23 01:22:00,38.1,37.8,29.97,ESE,111,0.0,6.0,28,0.00,,,0.00,0.0,meteohub,2013-02-23 06:22:00,
2013-02-23 01:27:00,37.9,37.8,29.97,SE,134,3.0,6.0,28,0.00,,,0.00,0.0,meteohub,2013-02-23 06:27:00,
2013-02-23 01:32:00,37.8,37.8,29.97,SE,128,3.0,5.0,28,0.00,,,0.00,0.0,meteohub,2013-02-23 06:32:00,
2013-02-23 01:37:00,37.8,37.8,29.96,SSE,147,0.0,4.0,28,0.00,,,0.00,0.0,meteohub,2013-02-23 06:37:00,
2013-02-23 01:42:00,37.6,37.8,29.98,SSE,148,1.0,4.0,28,0.00,,,0.00,0.0,meteohub,2013-02-23 06:42:00,
2013-02-23 01:47:00,37.6,37.8,29.98,SSE,148,2.0,4.0,28,0.00,,,0.00,0.0,meteohub,2013-02-23 06:47:00,
2013-02-23 01:52:00,37.6,37.8,29.97,ESE,118,3.0,3.0,28,0.00,,,0.00,0.0,meteohub,2013-02-23 06:52:00,
2013-02-23 01:57:00,37.6,37.8,29.97,ESE,121,2.0,4.0,28,0.00,,,0.00,0.0,meteohub,2013-02-23 06:57:00,
2013-02-23 02:02:00,37.6,37.8,29.97,SE,145,4.0,7.0,28,0.00,,,0.00,0.0,meteohub,2013-02-23 07:02:00,
2013-02-23 02:07:00,37.6,37.8,29.97,SE,131,0.0,7.0,28,0.00,,,0.00,0.0,meteohub,2013-02-23 07:07:00,
2013-02-23 02:12:00,37.6,37.8,29.97,East,93,3.0,7.0,28,0.00,,,0.00,0.0,meteohub,2013-02-23 07:12:00,
2013-02-23 02:17:00,37.6,37.8,29.97,ESE,115,1.0,5.0,28,0.00,,,0.00,0.0,meteohub,2013-02-23 07:17:00,
2013-02-23 02:22:00,37.6,37.8,29.97,ESE,111,2.0,3.0,28,0.00,,,0.00,0.0,meteohub,2013-02-23 07:22:00,
2013-02-23 02:27:00,37.6,37.8,29.97,SE,142,2.0,3.0,28,0.00,,,0.00,0.0,meteohub,2013-02-23 07:27:00,
2013-02-23 02:32:00,37.6,37.8,29.97,ESE,121,1.0,4.0,28,0.00,,,0.00,0.0,meteohub,2013-02-23 07:32:00,
2013-02-23 02:37:00,37.6,37.8,29.98,ESE,122,0.0,4.0,28,0.00,,,0.00,0.0,meteohub,2013-02-23 07:37:00,
2013-02-23 02:42:00,37.8,37.8,29.98,SSW,200,1.0,4.0,28,0.00,,,0.00,0.0,meteohub,2013-02-23 07:42:00,
2013-02-23 02:47:00,37.8,37.8,29.97,SSW,200,0.0,2.0,28,0.01,,,0.01,0.0,meteohub,2013-02-23 07:47:00,
2013-02-23 02:52:00,37.8,37.8,29.98,South,173,0.0,2.0,28,0.02,,,0.02,0.0,meteohub,2013-02-23 07:52:00,
2013-02-23 02:57:00,37.8,37.8,29.98,South,173,0.0,3.0,28,0.02,,,0.02,0.0,meteohub,2013-02-23 07:57:00,
2013-02-23 03:02:00,37.8,37.8,29.97,SSE,155,0.0,3.0,28,0.03,,,0.03,0.0,meteohub,2013-02-23 08:02:00,
2013-02-23 03:07:00,37.9,37.8,29.96,SSE,155,0.0,3.0,28,0.05,,,0.04,0.0,meteohub,2013-02-23 08:07:00,
2013-02-23 03:12:00,37.9,37.8,29.95,SSE,155,0.0,1.0,28,0.05,,,0.05,0.0,meteohub,2013-02-23 08:12:00,
2013-02-23 03:17:00,37.9,37.8,29.96,SSE,155,0.0,1.0,28,0.06,,,0.06,0.0,meteohub,2013-02-23 08:17:00,
2013-02-23 03:22:00,38.1,37.8,29.95,SSE,155,0.0,1.0,28,0.06,,,0.06,0.0,meteohub,2013-02-23 08:22:00,
2013-02-23 03:27:00,38.1,37.8,29.94,SSE,155,0.0,1.0,28,0.06,,,0.06,0.0,meteohub,2013-02-23 08:27:00,
2013-02-23 03:32:00,38.3,37.8,29.94,SSE,155,0.0,1.0,28,0.07,,,0.07,0.0,meteohub,2013-02-23 08:32:00,
2013-02-23 03:37:00,38.3,37.8,29.94,SSE,155,0.0,0.0,28,0.07,,,0.07,0.0,meteohub,2013-02-23 08:37:00,
2013-02-23 03:42:00,38.3,37.8,29.94,SSE,155,0.0,0.0,28,0.06,,,0.07,0.0,meteohub,2013-02-23 08:42:00,
2013-02-23 03:47:00,38.3,37.8,29.95,SSE,155,0.0,1.0,28,0.05,,,0.07,0.0,meteohub,2013-02-23 08:47:00,
2013-02-23 03:52:00,38.3,37.8,29.95,SSE,155,3.0,3.0,28,0.05,,,0.07,0.0,meteohub,2013-02-23 08:52:00,
2013-02-23 03:57:00,38.1,37.8,29.94,SE,125,1.0,3.0,28,0.04,,,0.07,0.0,meteohub,2013-02-23 08:57:00,
2013-02-23 04:02:00,38.1,37.8,29.94,ESE,106,1.0,5.0,28,0.03,,,0.07,0.0,meteohub,2013-02-23 09:02:00,
2013-02-23 04:07:00,38.1,37.8,29.94,SE,128,1.0,5.0,28,0.03,,,0.08,0.0,meteohub,2013-02-23 09:07:00,
2013-02-23 04:12:00,38.1,37.8,29.94,SE,126,0.0,5.0,28,0.02,,,0.08,0.0,meteohub,2013-02-23 09:12:00,
2013-02-23 04:17:00,38.5,37.8,29.94,SE,126,0.0,3.0,28,0.03,,,0.09,0.0,meteohub,2013-02-23 09:17:00,
2013-02-23 04:22:00,38.5,37.8,29.93,SE,126,1.0,3.0,28,0.03,,,0.09,0.0,meteohub,2013-02-23 09:22:00,
2013-02-23 04:27:00,38.7,37.8,29.93,SE,126,0.0,2.0,28,0.03,,,0.09,0.0,meteohub,2013-02-23 09:27:00,
2013-02-23 04:32:00,38.7,37.8,29.93,South,182,0.0,2.0,28,0.03,,,0.10,0.0,meteohub,2013-02-23 09:32:00,
2013-02-23 04:37:00,38.5,37.8,29.91,SE,124,1.0,3.0,28,0.03,,,0.10,0.0,meteohub,2013-02-23 09:37:00,
2013-02-23 04:42:00,38.8,37.8,29.90,SE,143,1.0,3.0,28,0.04,,,0.11,0.0,meteohub,2013-02-23 09:42:00,
2013-02-23 04:47:00,39.0,37.8,29.90,South,188,0.0,3.0,28,0.04,,,0.11,0.0,meteohub,2013-02-23 09:47:00,
2013-02-23 04:52:00,38.8,37.8,29.90,South,188,0.0,3.0,28,0.04,,,0.11,0.0,meteohub,2013-02-23 09:52:00,
2013-02-23 04:57:00,38.8,37.8,29.89,South,188,0.0,2.0,28,0.04,,,0.11,0.0,meteohub,2013-02-23 09:57:00,
2013-02-23 05:02:00,38.8,37.8,29.90,South,188,0.0,0.0,28,0.03,,,0.11,0.0,meteohub,2013-02-23 10:02:00,
2013-02-23 05:07:00,39.0,37.8,29.91,ESE,119,0.0,2.0,28,0.03,,,0.11,0.0,meteohub,2013-02-23 10:07:00,
2013-02-23 05:12:00,39.0,37.8,29.92,ESE,119,0.0,2.0,28,0.02,,,0.11,0.0,meteohub,2013-02-23 10:12:00,
2013-02-23 05:17:00,39.2,37.8,29.92,ESE,119,0.0,2.0,28,0.02,,,0.11,0.0,meteohub,2013-02-23 10:17:00,
2013-02-23 05:22:00,39.0,37.8,29.91,SE,136,1.0,0.0,28,0.02,,,0.11,0.0,meteohub,2013-02-23 10:22:00,
2013-02-23 05:27:00,39.0,37.8,29.91,SE,146,0.0,4.0,28,0.02,,,0.12,0.0,meteohub,2013-02-23 10:27:00,
2013-02-23 05:32:00,38.8,37.8,29.91,ESE,109,0.0,5.0,28,0.02,,,0.12,0.0,meteohub,2013-02-23 10:32:00,
2013-02-23 05:37:00,38.8,37.8,29.90,East,90,1.0,5.0,28,0.02,,,0.12,0.0,meteohub,2013-02-23 10:37:00,
2013-02-23 05:42:00,38.8,38.7,29.90,East,90,0.0,5.0,29,0.01,,,0.12,0.0,meteohub,2013-02-23 10:42:00,
2013-02-23 05:47:00,39.0,37.8,29.91,East,90,0.0,2.0,28,0.01,,,0.12,0.0,meteohub,2013-02-23 10:47:00,
2013-02-23 05:52:00,39.0,37.8,29.91,East,90,0.0,2.0,28,0.01,,,0.12,0.0,meteohub,2013-02-23 10:52:00,
2013-02-23 05:57:00,39.2,37.8,29.90,East,90,0.0,0.0,28,0.01,,,0.12,0.0,meteohub,2013-02-23 10:57:00,
2013-02-23 06:02:00,39.4,38.7,29.90,East,90,0.0,0.0,29,0.01,,,0.12,0.0,meteohub,2013-02-23 11:02:00,
2013-02-23 06:07:00,39.4,38.7,29.90,East,90,0.0,1.0,29,0.01,,,0.12,0.0,meteohub,2013-02-23 11:07:00,
2013-02-23 06:12:00,39.7,38.7,29.90,NNW,340,2.0,2.0,29,0.01,,,0.12,0.0,meteohub,2013-02-23 11:12:00,
2013-02-23 06:17:00,39.6,38.7,29.90,NW,305,0.0,4.0,29,0.01,,,0.12,0.0,meteohub,2013-02-23 11:17:00,
2013-02-23 06:22:00,39.6,38.7,29.90,NW,305,0.0,4.0,29,0.01,,,0.12,0.0,meteohub,2013-02-23 11:22:00,
2013-02-23 06:27:00,39.6,38.7,29.89,SE,144,1.0,4.0,29,0.00,,,0.12,0.0,meteohub,2013-02-23 11:27:00,
2013-02-23 06:32:00,39.7,38.7,29.89,SE,142,0.0,3.0,29,0.00,,,0.12,0.0,meteohub,2013-02-23 11:32:00,
2013-02-23 06:42:00,39.7,38.7,29.90,North,355,0.0,3.0,29,0.00,,,0.12,0.0,meteohub,2013-02-23 11:42:00,
2013-02-23 06:47:00,39.9,38.7,29.90,NNE,12,0.0,4.0,29,0.00,,,0.12,0.0,meteohub,2013-02-23 11:47:00,
2013-02-23 06:52:00,40.1,38.7,29.89,NNE,12,0.0,4.0,29,0.00,,,0.12,0.0,meteohub,2013-02-23 11:52:00,
2013-02-23 06:57:00,40.3,38.7,29.89,NNE,12,0.0,3.0,29,0.00,,,0.12,0.0,meteohub,2013-02-23 11:57:00,
2013-02-23 07:02:00,40.3,38.7,29.89,ESE,102,0.0,2.0,29,0.01,,,0.13,0.0,meteohub,2013-02-23 12:02:00,
2013-02-23 07:07:00,40.3,38.7,29.88,East,101,0.0,2.0,29,0.01,,,0.13,0.0,meteohub,2013-02-23 12:07:00,
2013-02-23 07:12:00,40.5,38.7,29.89,East,101,0.0,2.0,29,0.01,,,0.13,0.0,meteohub,2013-02-23 12:12:00,
2013-02-23 07:17:00,40.5,38.7,29.89,East,101,0.0,0.0,29,0.01,,,0.13,0.0,meteohub,2013-02-23 12:17:00,
2013-02-23 07:22:00,40.5,38.7,29.89,ESE,102,0.0,0.0,29,0.01,,,0.13,0.0,meteohub,2013-02-23 12:22:00,
2013-02-23 07:27:00,40.5,38.7,29.88,SSE,159,0.0,3.0,29,0.01,,,0.13,0.0,meteohub,2013-02-23 12:27:00,
2013-02-23 07:32:00,40.5,38.7,29.88,SSE,159,0.0,3.0,29,0.01,,,0.13,5.0,meteohub,2013-02-23 12:32:00,
2013-02-23 07:37:00,40.5,38.7,29.89,SSE,159,0.0,3.0,29,0.01,,,0.13,7.0,meteohub,2013-02-23 12:37:00,
2013-02-23 07:42:00,40.5,38.7,29.89,SSE,159,0.0,2.0,29,0.01,,,0.13,11.0,meteohub,2013-02-23 12:42:00,
2013-02-23 07:47:00,40.5,38.7,29.89,SSE,159,0.0,1.0,29,0.01,,,0.13,11.0,meteohub,2013-02-23 12:47:00,
2013-02-23 07:52:00,40.3,38.7,29.88,SSE,159,0.0,0.0,29,0.01,,,0.13,12.0,meteohub,2013-02-23 12:52:00,
2013-02-23 07:57:00,40.5,38.7,29.88,SSE,159,0.0,0.0,29,0.00,,,0.13,14.0,meteohub,2013-02-23 12:57:00,
2013-02-23 08:02:00,40.5,38.7,29.89,SSE,159,0.0,1.0,29,0.00,,,0.13,14.0,meteohub,2013-02-23 13:02:00,
2013-02-23 08:07:00,40.5,38.7,29.89,SSE,159,0.0,2.0,29,0.00,,,0.13,18.0,meteohub,2013-02-23 13:07:00,
2013-02-23 08:12:00,40.5,38.7,29.89,NW,320,2.0,2.0,29,0.00,,,0.13,21.0,meteohub,2013-02-23 13:12:00,
2013-02-23 08:17:00,40.5,38.7,29.89,NW,325,0.0,3.0,29,0.00,,,0.13,35.0,meteohub,2013-02-23 13:17:00,
2013-02-23 08:22:00,40.6,38.7,29.89,NW,325,0.0,3.0,29,0.00,,,0.13,60.0,meteohub,2013-02-23 13:22:00,
2013-02-23 08:27:00,40.8,38.7,29.89,NW,325,0.0,3.0,29,0.00,,,0.13,40.0,meteohub,2013-02-23 13:27:00,
2013-02-23 08:32:00,41.0,38.7,29.89,NW,325,0.0,1.0,29,0.00,,,0.13,40.0,meteohub,2013-02-23 13:32:00,
2013-02-23 08:37:00,41.2,38.7,29.89,NW,325,0.0,0.0,29,0.00,,,0.13,58.0,meteohub,2013-02-23 13:37:00,
2013-02-23 08:47:00,41.7,38.7,29.89,WNW,290,0.0,2.0,29,0.00,,,0.13,39.0,meteohub,2013-02-23 13:47:00,
2013-02-23 08:52:00,41.5,38.7,29.90,West,278,0.0,2.0,29,0.00,,,0.13,23.0,meteohub,2013-02-23 13:52:00,
2013-02-23 08:57:00,41.4,38.7,29.91,West,278,0.0,2.0,29,0.00,,,0.13,37.0,meteohub,2013-02-23 13:57:00,
2013-02-23 09:02:00,41.5,38.7,29.90,West,278,0.0,2.0,29,0.00,,,0.13,54.0,meteohub,2013-02-23 14:02:00,
2013-02-23 09:07:00,41.7,38.7,29.89,NNW,341,1.0,0.0,29,0.00,,,0.13,90.0,meteohub,2013-02-23 14:07:00,
2013-02-23 09:12:00,42.6,38.7,29.90,North,355,0.0,2.0,29,0.00,,,0.13,134.0,meteohub,2013-02-23 14:12:00,
2013-02-23 09:22:00,43.3,38.7,29.90,North,355,0.0,2.0,29,0.01,,,0.14,81.0,meteohub,2013-02-23 14:22:00,
2013-02-23 09:27:00,43.3,38.7,29.89,North,355,0.0,0.0,29,0.01,,,0.14,151.0,meteohub,2013-02-23 14:27:00,
2013-02-23 09:32:00,43.7,38.7,29.89,North,355,0.0,0.0,29,0.01,,,0.14,141.0,meteohub,2013-02-23 14:32:00,
2013-02-23 09:37:00,44.6,38.7,29.88,North,355,0.0,0.0,29,0.01,,,0.14,153.0,meteohub,2013-02-23 14:37:00,
2013-02-23 09:42:00,44.6,38.7,29.89,North,351,0.0,2.0,29,0.01,,,0.14,100.0,meteohub,2013-02-23 14:42:00,
2013-02-23 09:47:00,45.0,38.7,29.88,North,350,0.0,2.0,29,0.01,,,0.14,169.0,meteohub,2013-02-23 14:47:00,
2013-02-23 09:52:00,45.5,38.7,29.88,NNW,344,1.0,2.0,29,0.01,,,0.14,211.0,meteohub,2013-02-23 14:52:00,
2013-02-23 09:57:00,46.0,38.7,29.88,NW,324,0.0,2.0,29,0.01,,,0.14,185.0,meteohub,2013-02-23 14:57:00,
2013-02-23 10:02:00,46.0,38.7,29.88,NW,324,1.0,2.0,29,0.01,,,0.14,216.0,meteohub,2013-02-23 15:02:00,
2013-02-23 10:07:00,46.0,38.7,29.88,NW,324,0.0,2.0,29,0.01,,,0.14,169.0,meteohub,2013-02-23 15:07:00,
2013-02-23 10:12:00,46.2,38.7,29.88,NW,306,1.0,2.0,29,0.00,,,0.14,185.0,meteohub,2013-02-23 15:12:00,
2013-02-23 10:17:00,46.4,38.7,29.88,NW,306,2.0,2.0,29,0.00,,,0.14,197.0,meteohub,2013-02-23 15:17:00,
2013-02-23 10:22:00,46.4,38.7,29.88,NW,306,1.0,2.0,29,0.00,,,0.14,179.0,meteohub,2013-02-23 15:22:00,
2013-02-23 10:27:00,46.6,38.7,29.88,NW,306,1.0,2.0,29,0.00,,,0.14,183.0,meteohub,2013-02-23 15:27:00,
2013-02-23 10:32:00,46.8,38.7,29.88,NW,306,1.0,2.0,29,0.00,,,0.14,232.0,meteohub,2013-02-23 15:32:00,
2013-02-23 10:37:00,46.9,38.7,29.88,NW,306,0.0,2.0,29,0.00,,,0.14,183.0,meteohub,2013-02-23 15:37:00,
2013-02-23 10:42:00,47.3,38.7,29.88,NW,306,1.0,2.0,29,0.00,,,0.14,156.0,meteohub,2013-02-23 15:42:00,
2013-02-23 10:47:00,47.7,38.7,29.88,NW,306,0.0,2.0,29,0.00,,,0.14,204.0,meteohub,2013-02-23 15:47:00,
2013-02-23 10:52:00,47.5,38.7,29.87,NW,307,0.0,2.0,29,0.00,,,0.14,227.0,meteohub,2013-02-23 15:52:00,
2013-02-23 10:57:00,47.8,38.7,29.87,NW,306,1.0,2.0,29,0.00,,,0.14,178.0,meteohub,2013-02-23 15:57:00,
2013-02-23 11:02:00,47.8,38.7,29.87,WNW,289,0.0,2.0,29,0.00,,,0.14,234.0,meteohub,2013-02-23 16:02:00,
2013-02-23 11:07:00,47.8,38.7,29.86,WNW,289,1.0,2.0,29,0.00,,,0.14,230.0,meteohub,2013-02-23 16:07:00,
2013-02-23 11:12:00,48.0,38.7,29.86,West,275,0.0,2.0,29,0.00,,,0.14,248.0,meteohub,2013-02-23 16:12:00,
2013-02-23 11:17:00,48.4,39.4,29.87,West,275,0.0,3.0,30,0.00,,,0.14,218.0,meteohub,2013-02-23 16:17:00,
2013-02-23 11:22:00,48.9,39.4,29.87,West,275,1.0,3.0,30,0.00,,,0.14,264.0,meteohub,2013-02-23 16:22:00,
2013-02-23 11:27:00,48.9,39.4,29.87,West,275,0.0,3.0,30,0.00,,,0.14,216.0,meteohub,2013-02-23 16:27:00,
2013-02-23 11:32:00,48.9,39.4,29.87,West,274,0.0,2.0,30,0.00,,,0.14,236.0,meteohub,2013-02-23 16:32:00,
2013-02-23 11:37:00,49.1,39.4,29.87,West,274,0.0,2.0,30,0.00,,,0.14,276.0,meteohub,2013-02-23 16:37:00,
2013-02-23 11:42:00,49.5,39.4,29.87,WSW,246,0.0,2.0,30,0.00,,,0.14,262.0,meteohub,2013-02-23 16:42:00,
2013-02-23 11:47:00,49.5,39.4,29.87,SE,132,0.0,3.0,30,0.00,,,0.14,251.0,meteohub,2013-02-23 16:47:00,
2013-02-23 11:52:00,49.8,39.6,29.87,SE,132,0.0,3.0,30,0.00,,,0.14,269.0,meteohub,2013-02-23 16:52:00,
2013-02-23 11:57:00,49.6,39.4,29.87,SE,132,0.0,3.0,30,0.00,,,0.14,330.0,meteohub,2013-02-23 16:57:00,
2013-02-23 12:02:00,50.0,39.6,29.87,SSE,157,2.0,3.0,30,0.00,,,0.14,316.0,meteohub,2013-02-23 17:02:00,
2013-02-23 12:07:00,50.0,39.6,29.86,SSE,165,2.0,3.0,30,0.00,,,0.14,330.0,meteohub,2013-02-23 17:07:00,
2013-02-23 12:17:00,50.5,39.6,29.86,SE,140,2.0,4.0,30,0.00,,,0.14,566.0,meteohub,2013-02-23 17:17:00,
2013-02-23 12:22:00,51.1,39.6,29.84,SSE,150,3.0,4.0,30,0.00,,,0.14,471.0,meteohub,2013-02-23 17:22:00,
2013-02-23 12:27:00,51.1,39.6,29.84,South,182,6.0,6.0,30,0.00,,,0.14,512.0,meteohub,2013-02-23 17:27:00,
2013-02-23 12:32:00,51.1,39.6,29.84,SE,127,0.0,6.0,30,0.00,,,0.14,468.0,meteohub,2013-02-23 17:32:00,
2013-02-23 12:37:00,52.3,39.6,29.83,SE,127,3.0,6.0,30,0.00,,,0.14,664.0,meteohub,2013-02-23 17:37:00,
2013-02-23 12:47:00,52.9,39.6,29.83,ESE,109,1.0,5.0,30,0.00,,,0.14,406.0,meteohub,2013-02-23 17:47:00,
2013-02-23 12:52:00,53.1,39.6,29.83,SSE,163,2.0,6.0,30,0.00,,,0.14,360.0,meteohub,2013-02-23 17:52:00,
2013-02-23 12:57:00,52.5,39.6,29.83,SSE,150,2.0,6.0,30,0.00,,,0.14,436.0,meteohub,2013-02-23 17:57:00,
2013-02-23 13:02:00,52.9,39.6,29.83,SSE,147,4.0,4.0,30,0.00,,,0.14,431.0,meteohub,2013-02-23 18:02:00,
2013-02-23 13:07:00,52.7,39.6,29.82,South,180,4.0,5.0,30,0.00,,,0.14,469.0,meteohub,2013-02-23 18:07:00,
2013-02-23 13:12:00,52.5,39.6,29.82,South,177,4.0,7.0,30,0.00,,,0.14,427.0,meteohub,2013-02-23 18:12:00,
2013-02-23 13:17:00,53.4,39.6,29.82,ESE,122,5.0,7.0,30,0.00,,,0.14,397.0,meteohub,2013-02-23 18:17:00,
2013-02-23 13:22:00,54.0,39.6,29.82,SSE,157,4.0,8.0,30,0.00,,,0.14,262.0,meteohub,2013-02-23 18:22:00,
2013-02-23 13:27:00,53.2,39.6,29.82,SSE,164,1.0,8.0,30,0.00,,,0.14,323.0,meteohub,2013-02-23 18:27:00,
2013-02-23 13:32:00,53.2,39.6,29.82,SE,135,3.0,8.0,30,0.00,,,0.14,272.0,meteohub,2013-02-23 18:32:00,
2013-02-23 13:37:00,53.4,39.6,29.82,SSE,149,4.0,8.0,30,0.00,,,0.14,232.0,meteohub,2013-02-23 18:37:00,
2013-02-23 13:42:00,53.2,39.6,29.82,SE,146,3.0,8.0,30,0.00,,,0.14,179.0,meteohub,2013-02-23 18:42:00,
2013-02-23 13:47:00,52.7,39.6,29.82,SE,128,5.0,8.0,30,0.00,,,0.14,183.0,meteohub,2013-02-23 18:47:00,
2013-02-23 13:52:00,52.5,39.6,29.82,SSE,155,4.0,8.0,30,0.00,,,0.14,171.0,meteohub,2013-02-23 18:52:00,
2013-02-23 13:57:00,52.3,39.6,29.81,SE,142,5.0,8.0,30,0.00,,,0.14,185.0,meteohub,2013-02-23 18:57:00,
2013-02-23 14:02:00,52.5,39.6,29.81,SE,136,7.0,8.0,30,0.00,,,0.14,134.0,meteohub,2013-02-23 19:02:00,
2013-02-23 14:07:00,52.3,39.6,29.81,South,169,4.0,8.0,30,0.00,,,0.14,123.0,meteohub,2013-02-23 19:07:00,
2013-02-23 14:12:00,52.2,39.6,29.81,SE,136,4.0,9.0,30,0.00,,,0.14,200.0,meteohub,2013-02-23 19:12:00,
2013-02-23 14:17:00,52.3,39.6,29.81,SE,144,4.0,9.0,30,0.00,,,0.14,162.0,meteohub,2013-02-23 19:17:00,
2013-02-23 14:22:00,52.2,39.6,29.81,SE,125,7.0,11.0,30,0.00,,,0.14,169.0,meteohub,2013-02-23 19:22:00,
2013-02-23 14:27:00,52.3,40.5,29.81,SSE,158,5.0,11.0,31,0.00,,,0.14,216.0,meteohub,2013-02-23 19:27:00,
2013-02-23 14:32:00,52.3,40.5,29.81,SE,134,8.0,11.0,31,0.00,,,0.14,172.0,meteohub,2013-02-23 19:32:00,
2013-02-23 14:37:00,52.3,40.5,29.81,ESE,108,4.0,9.0,31,0.00,,,0.14,176.0,meteohub,2013-02-23 19:37:00,
2013-02-23 14:42:00,52.2,40.5,29.81,SSE,154,5.0,9.0,31,0.00,,,0.14,156.0,meteohub,2013-02-23 19:42:00,
2013-02-23 14:47:00,52.2,40.5,29.81,SE,134,6.0,9.0,31,0.00,,,0.14,128.0,meteohub,2013-02-23 19:47:00,
2013-02-23 14:52:00,52.3,40.5,29.81,SE,129,2.0,8.0,31,0.00,,,0.14,151.0,meteohub,2013-02-23 19:52:00,
2013-02-23 14:57:00,52.5,40.5,29.81,SE,144,5.0,8.0,31,0.00,,,0.14,132.0,meteohub,2013-02-23 19:57:00,
2013-02-23 15:02:00,52.3,40.5,29.80,SSE,155,1.0,8.0,31,0.00,,,0.14,97.0,meteohub,2013-02-23 20:02:00,
2013-02-23 15:07:00,52.2,40.5,29.80,SE,134,3.0,7.0,31,0.00,,,0.14,98.0,meteohub,2013-02-23 20:07:00,
2013-02-23 15:12:00,52.2,40.5,29.80,SE,132,2.0,7.0,31,0.00,,,0.14,104.0,meteohub,2013-02-23 20:12:00,
2013-02-23 15:17:00,52.2,40.5,29.79,ESE,119,4.0,7.0,31,0.00,,,0.14,135.0,meteohub,2013-02-23 20:17:00,
2013-02-23 15:22:00,52.2,40.5,29.79,SSE,149,4.0,6.0,31,0.00,,,0.14,174.0,meteohub,2013-02-23 20:22:00,
2013-02-23 15:27:00,52.3,40.5,29.79,SSE,162,3.0,6.0,31,0.00,,,0.14,167.0,meteohub,2013-02-23 20:27:00,
2013-02-23 15:32:00,52.3,40.5,29.79,SE,132,4.0,6.0,31,0.00,,,0.14,160.0,meteohub,2013-02-23 20:32:00,
2013-02-23 15:37:00,52.3,40.5,29.79,South,172,2.0,7.0,31,0.00,,,0.14,160.0,meteohub,2013-02-23 20:37:00,
2013-02-23 15:42:00,52.2,40.5,29.79,SSE,165,4.0,7.0,31,0.00,,,0.14,185.0,meteohub,2013-02-23 20:42:00,
2013-02-23 15:47:00,52.0,40.5,29.80,SE,125,4.0,10.0,31,0.00,,,0.14,135.0,meteohub,2013-02-23 20:47:00,
2013-02-23 15:52:00,52.0,40.5,29.80,SE,138,3.0,10.0,31,0.00,,,0.14,104.0,meteohub,2013-02-23 20:52:00,
2013-02-23 15:57:00,52.0,40.5,29.80,ESE,120,2.0,10.0,31,0.00,,,0.14,144.0,meteohub,2013-02-23 20:57:00,
2013-02-23 16:02:00,52.2,40.5,29.80,ESE,122,1.0,8.0,31,0.00,,,0.14,186.0,meteohub,2013-02-23 21:02:00,
2013-02-23 16:07:00,52.2,40.5,29.80,SE,138,6.0,7.0,31,0.00,,,0.14,162.0,meteohub,2013-02-23 21:07:00,
2013-02-23 16:17:00,52.3,40.5,29.80,ESE,120,1.0,7.0,31,0.00,,,0.14,162.0,meteohub,2013-02-23 21:17:00,
2013-02-23 16:22:00,52.5,40.5,29.79,SE,127,2.0,7.0,31,0.00,,,0.14,176.0,meteohub,2013-02-23 21:22:00,
2013-02-23 16:27:00,52.7,40.5,29.79,East,101,3.0,6.0,31,0.00,,,0.14,153.0,meteohub,2013-02-23 21:27:00,
2013-02-23 16:32:00,52.5,40.5,29.78,SE,134,4.0,7.0,31,0.00,,,0.14,130.0,meteohub,2013-02-23 21:32:00,
2013-02-23 16:37:00,52.3,40.5,29.78,SE,140,4.0,7.0,31,0.00,,,0.14,125.0,meteohub,2013-02-23 21:37:00,
2013-02-23 16:42:00,52.3,40.5,29.78,SSE,153,3.0,7.0,31,0.00,,,0.14,113.0,meteohub,2013-02-23 21:42:00,
2013-02-23 16:47:00,52.3,40.5,29.78,SSE,154,1.0,7.0,31,0.00,,,0.14,105.0,meteohub,2013-02-23 21:47:00,
2013-02-23 16:52:00,52.2,40.5,29.78,ESE,117,2.0,6.0,31,0.00,,,0.14,88.0,meteohub,2013-02-23 21:52:00,
2013-02-23 16:57:00,52.2,40.5,29.78,SE,137,0.0,6.0,31,0.00,,,0.14,77.0,meteohub,2013-02-23 21:57:00,
2013-02-23 17:02:00,52.0,40.5,29.77,SE,138,3.0,6.0,31,0.00,,,0.14,67.0,meteohub,2013-02-23 22:02:00,
2013-02-23 17:07:00,52.0,40.5,29.77,SE,137,5.0,5.0,31,0.00,,,0.14,65.0,meteohub,2013-02-23 22:07:00,
2013-02-23 17:12:00,51.8,40.5,29.78,SE,138,0.0,6.0,31,0.00,,,0.14,54.0,meteohub,2013-02-23 22:12:00,
2013-02-23 17:17:00,51.8,40.5,29.78,SE,136,4.0,7.0,31,0.00,,,0.14,39.0,meteohub,2013-02-23 22:17:00,
2013-02-23 17:22:00,51.6,40.5,29.77,SE,126,6.0,7.0,31,0.00,,,0.14,30.0,meteohub,2013-02-23 22:22:00,
2013-02-23 17:27:00,51.4,40.5,29.78,SE,136,3.0,7.0,31,0.00,,,0.14,30.0,meteohub,2013-02-23 22:27:00,
2013-02-23 17:32:00,51.4,40.5,29.77,SSE,151,4.0,6.0,31,0.00,,,0.14,26.0,meteohub,2013-02-23 22:32:00,
2013-02-23 17:37:00,51.4,40.5,29.78,ESE,123,4.0,6.0,31,0.00,,,0.14,23.0,meteohub,2013-02-23 22:37:00,
2013-02-23 17:42:00,51.3,40.5,29.77,ESE,111,2.0,7.0,31,0.00,,,0.14,21.0,meteohub,2013-02-23 22:42:00,
2013-02-23 17:47:00,51.3,40.5,29.77,ESE,115,0.0,7.0,31,0.00,,,0.14,18.0,meteohub,2013-02-23 22:47:00,
2013-02-23 17:52:00,51.1,40.5,29.77,ESE,103,0.0,5.0,31,0.00,,,0.14,16.0,meteohub,2013-02-23 22:52:00,
2013-02-23 17:57:00,50.9,40.5,29.76,SSE,158,3.0,5.0,31,0.00,,,0.14,11.0,meteohub,2013-02-23 22:57:00,
2013-02-23 18:02:00,50.7,40.5,29.77,ESE,102,1.0,7.0,31,0.00,,,0.14,5.0,meteohub,2013-02-23 23:02:00,
2013-02-23 18:07:00,50.5,40.5,29.76,ESE,116,3.0,7.0,31,0.00,,,0.14,0.0,meteohub,2013-02-23 23:07:00,
2013-02-23 18:12:00,50.5,41.4,29.76,ESE,115,3.0,8.0,32,0.00,,,0.14,0.0,meteohub,2013-02-23 23:12:00,
2013-02-23 18:17:00,50.5,41.4,29.75,ESE,119,2.0,8.0,32,0.00,,,0.14,0.0,meteohub,2013-02-23 23:17:00,
2013-02-23 18:22:00,50.4,41.4,29.76,ENE,76,1.0,7.0,32,0.00,,,0.14,0.0,meteohub,2013-02-23 23:22:00,
2013-02-23 18:27:00,50.4,41.4,29.76,East,100,2.0,7.0,32,0.00,,,0.14,0.0,meteohub,2013-02-23 23:27:00,
2013-02-23 18:32:00,50.2,41.4,29.76,SE,126,1.0,7.0,32,0.00,,,0.14,0.0,meteohub,2013-02-23 23:32:00,
2013-02-23 18:37:00,50.2,41.4,29.76,East,91,1.0,6.0,32,0.00,,,0.14,0.0,meteohub,2013-02-23 23:37:00,
2013-02-23 18:42:00,50.0,41.4,29.77,East,94,2.0,5.0,32,0.00,,,0.14,0.0,meteohub,2013-02-23 23:42:00,
2013-02-23 18:47:00,49.8,41.4,29.77,East,96,3.0,5.0,32,0.00,,,0.14,0.0,meteohub,2013-02-23 23:47:00,
2013-02-23 18:52:00,49.6,41.4,29.76,ESE,105,1.0,5.0,32,0.00,,,0.14,0.0,meteohub,2013-02-23 23:52:00,
2013-02-23 18:57:00,49.6,41.4,29.76,East,94,1.0,5.0,32,0.00,,,0.14,0.0,meteohub,2013-02-23 23:57:00,
2013-02-23 19:02:00,49.5,41.4,29.76,ENE,76,0.0,5.0,32,0.00,,,0.14,0.0,meteohub,2013-02-24 00:02:00,
2013-02-23 19:07:00,49.5,41.4,29.77,East,88,2.0,3.0,32,0.00,,,0.14,0.0,meteohub,2013-02-24 00:07:00,
2013-02-23 19:12:00,49.3,41.4,29.77,ESE,105,0.0,3.0,32,0.00,,,0.14,0.0,meteohub,2013-02-24 00:12:00,
2013-02-23 19:17:00,49.3,41.4,29.77,ENE,58,3.0,5.0,32,0.00,,,0.14,0.0,meteohub,2013-02-24 00:17:00,
2013-02-23 19:22:00,49.3,41.4,29.76,ENE,64,1.0,5.0,32,0.00,,,0.14,0.0,meteohub,2013-02-24 00:22:00,
2013-02-23 19:27:00,49.3,41.4,29.76,ENE,59,3.0,5.0,32,0.00,,,0.14,0.0,meteohub,2013-02-24 00:27:00,
2013-02-23 19:32:00,49.3,41.4,29.76,ENE,67,3.0,5.0,32,0.00,,,0.14,0.0,meteohub,2013-02-24 00:32:00,
2013-02-23 19:37:00,49.1,41.4,29.77,East,94,2.0,5.0,32,0.00,,,0.14,0.0,meteohub,2013-02-24 00:37:00,
2013-02-23 19:42:00,49.1,41.4,29.77,ESE,118,1.0,4.0,32,0.00,,,0.14,0.0,meteohub,2013-02-24 00:42:00,
2013-02-23 19:47:00,48.9,41.4,29.77,NE,52,1.0,5.0,32,0.00,,,0.14,0.0,meteohub,2013-02-24 00:47:00,
2013-02-23 19:52:00,48.9,41.4,29.77,ENE,64,1.0,5.0,32,0.00,,,0.14,0.0,meteohub,2013-02-24 00:52:00,
2013-02-23 19:57:00,48.9,41.4,29.77,NNE,14,0.0,3.0,32,0.00,,,0.14,0.0,meteohub,2013-02-24 00:57:00,
2013-02-23 20:02:00,48.7,41.4,29.77,NNE,14,0.0,3.0,32,0.00,,,0.14,0.0,meteohub,2013-02-24 01:02:00,
2013-02-23 20:07:00,48.4,41.4,29.77,NNE,14,0.0,3.0,32,0.00,,,0.14,0.0,meteohub,2013-02-24 01:07:00,
2013-02-23 20:12:00,48.2,41.4,29.76,NNE,14,0.0,1.0,32,0.00,,,0.14,0.0,meteohub,2013-02-24 01:12:00,
2013-02-23 20:17:00,48.0,41.4,29.76,NNE,14,1.0,2.0,32,0.00,,,0.14,0.0,meteohub,2013-02-24 01:17:00,
2013-02-23 20:22:00,48.0,41.4,29.76,NNE,14,0.0,2.0,32,0.00,,,0.14,0.0,meteohub,2013-02-24 01:22:00,
2013-02-23 20:27:00,47.8,41.4,29.77,NNE,14,1.0,2.0,32,0.00,,,0.14,0.0,meteohub,2013-02-24 01:27:00,
2013-02-23 20:32:00,47.8,41.4,29.77,NNW,328,0.0,3.0,32,0.00,,,0.14,0.0,meteohub,2013-02-24 01:32:00,
2013-02-23 20:37:00,47.7,41.4,29.77,NNW,328,0.0,3.0,32,0.00,,,0.14,0.0,meteohub,2013-02-24 01:37:00,
2013-02-23 20:42:00,47.3,41.4,29.77,NNW,328,1.0,3.0,32,0.00,,,0.14,0.0,meteohub,2013-02-24 01:42:00,
2013-02-23 20:47:00,47.1,41.4,29.77,NNW,328,0.0,2.0,32,0.00,,,0.14,0.0,meteohub,2013-02-24 01:47:00,
2013-02-23 20:52:00,46.9,41.4,29.77,NNW,328,0.0,2.0,32,0.00,,,0.14,0.0,meteohub,2013-02-24 01:52:00,
2013-02-23 20:57:00,46.8,41.4,29.77,NNW,328,1.0,1.0,32,0.00,,,0.14,0.0,meteohub,2013-02-24 01:57:00,
2013-02-23 21:02:00,46.8,41.4,29.77,NNW,329,0.0,2.0,32,0.00,,,0.14,0.0,meteohub,2013-02-24 02:02:00,
2013-02-23 21:07:00,46.6,41.4,29.77,NNW,329,0.0,2.0,32,0.00,,,0.14,0.0,meteohub,2013-02-24 02:07:00,
2013-02-23 21:12:00,46.6,41.4,29.77,NNW,329,0.0,2.0,32,0.00,,,0.14,0.0,meteohub,2013-02-24 02:12:00,
2013-02-23 21:17:00,46.6,41.4,29.78,NNW,329,0.0,2.0,32,0.00,,,0.14,0.0,meteohub,2013-02-24 02:17:00,
2013-02-23 21:22:00,46.6,41.4,29.77,North,355,1.0,3.0,32,0.00,,,0.14,0.0,meteohub,2013-02-24 02:22:00,
2013-02-23 21:27:00,46.6,41.4,29.78,North,355,0.0,3.0,32,0.00,,,0.14,0.0,meteohub,2013-02-24 02:27:00,
2013-02-23 21:32:00,46.6,41.4,29.78,North,355,2.0,3.0,32,0.00,,,0.14,0.0,meteohub,2013-02-24 02:32:00,
2013-02-23 21:42:00,46.2,41.4,29.78,North,355,1.0,2.0,32,0.00,,,0.14,0.0,meteohub,2013-02-24 02:42:00,
2013-02-23 21:47:00,46.0,41.4,29.78,North,355,2.0,4.0,32,0.00,,,0.14,0.0,meteohub,2013-02-24 02:47:00,
2013-02-23 21:52:00,46.0,41.4,29.78,North,5,0.0,4.0,32,0.00,,,0.14,0.0,meteohub,2013-02-24 02:52:00,
2013-02-23 21:57:00,45.9,41.4,29.78,North,5,0.0,4.0,32,0.00,,,0.14,0.0,meteohub,2013-02-24 02:57:00,
2013-02-23 22:02:00,45.7,41.4,29.78,North,5,0.0,4.0,32,0.00,,,0.14,0.0,meteohub,2013-02-24 03:02:00,
2013-02-23 22:07:00,45.3,41.4,29.78,North,5,0.0,3.0,32,0.00,,,0.14,0.0,meteohub,2013-02-24 03:07:00,
2013-02-23 22:12:00,45.1,41.4,29.78,North,5,0.0,3.0,32,0.00,,,0.14,0.0,meteohub,2013-02-24 03:12:00,
2013-02-23 22:22:00,44.8,41.4,29.78,North,5,1.0,2.0,32,0.00,,,0.14,0.0,meteohub,2013-02-24 03:22:00,
2013-02-23 22:27:00,44.4,41.4,29.78,North,5,0.0,3.0,32,0.00,,,0.14,0.0,meteohub,2013-02-24 03:27:00,
2013-02-23 22:32:00,44.4,41.4,29.78,NNW,333,2.0,3.0,32,0.00,,,0.14,0.0,meteohub,2013-02-24 03:32:00,
2013-02-23 22:37:00,44.6,41.4,29.78,NW,315,1.0,3.0,32,0.00,,,0.14,0.0,meteohub,2013-02-24 03:37:00,
2013-02-23 22:42:00,44.6,41.4,29.79,NW,304,0.0,3.0,32,0.00,,,0.14,0.0,meteohub,2013-02-24 03:42:00,
2013-02-23 22:47:00,44.4,41.4,29.79,North,355,3.0,3.0,32,0.00,,,0.14,0.0,meteohub,2013-02-24 03:47:00,
2013-02-23 22:52:00,44.2,41.4,29.79,NNW,331,1.0,4.0,32,0.00,,,0.14,0.0,meteohub,2013-02-24 03:52:00,
2013-02-23 22:57:00,44.1,41.4,29.79,North,5,0.0,4.0,32,0.00,,,0.14,0.0,meteohub,2013-02-24 03:57:00,
2013-02-23 23:02:00,43.5,41.4,29.79,North,5,0.0,4.0,32,0.00,,,0.14,0.0,meteohub,2013-02-24 04:02:00,
2013-02-23 23:12:00,42.6,41.4,29.79,NW,310,0.0,1.0,32,0.00,,,0.14,0.0,meteohub,2013-02-24 04:12:00,
2013-02-23 23:17:00,42.1,41.2,29.79,NW,310,0.0,1.0,32,0.00,,,0.14,0.0,meteohub,2013-02-24 04:17:00,
2013-02-23 23:22:00,41.7,41.2,29.79,NW,310,0.0,1.0,32,0.00,,,0.14,0.0,meteohub,2013-02-24 04:22:00,
2013-02-23 23:27:00,41.5,41.2,29.80,NNW,327,3.0,0.0,32,0.00,,,0.14,0.0,meteohub,2013-02-24 04:27:00,
2013-02-23 23:32:00,41.5,41.2,29.80,WNW,300,4.0,8.0,32,0.00,,,0.14,0.0,meteohub,2013-02-24 04:32:00,
2013-02-23 23:37:00,41.5,41.2,29.80,WNW,289,2.0,8.0,32,0.00,,,0.14,0.0,meteohub,2013-02-24 04:37:00,
2013-02-23 23:42:00,42.1,41.2,29.80,NW,307,1.0,8.0,32,0.00,,,0.14,0.0,meteohub,2013-02-24 04:42:00,
2013-02-23 23:52:00,43.2,41.2,29.80,West,271,1.0,6.0,32,0.00,,,0.14,0.0,meteohub,2013-02-24 04:52:00,
2013-02-23 23:57:00,43.2,41.2,29.80,West,271,0.0,4.0,32,0.00,,,0.14,0.0,meteohub,2013-02-24 04:57:00,